Location: D�pe
(52.6057°N, 8.1808°E)
Time: 07:33:55
(UTC+00:00)

ERBS - Pass Details

Date: 29 October 2020
Orbit: 406 x 422 km, 57.0° (Epoch: 01 December)

Event Time Altitude Azimuth Distance (km) Brightness Sun altitude
Rises 16:40:26 0° 277° (W) 2,363 7.6 -6.4°
Reaches altitude 10° 16:42:36 10° 286° (WNW) 1,503 6.1 -6.7°
Maximum altitude 16:45:46 37° 356° (N) 668 3.2 -7.1°
Drops below altitude 10° 16:48:57 10° 67° (ENE) 1,514 4.4 -7.6°
Enters shadow 16:48:59 10° 67° (ENE) 1,523 4.4 -7.6°
